Location: Piedmont
(45.8748°N, 74.1254°W)
Time: 16:17:03
(UTC+00:00)

X-37B - Visible Passes

Search period start: 01 December 2021 00:00
Search period end: 11 December 2021 00:00
Orbit: 330 x 341 km, 45.0° (Epoch: 20 November)

Date Brightness Start Highest point End Pass type
(mag) Time Alt. Az. Time Alt. Az. Time Alt. Az.
06 Dec 2.5 23:01:55 10° SSW 23:03:24 17° SSE 23:03:24 17° SSE visible
07 Dec 2.4 23:21:35 10° SW 23:23:02 23° SSW 23:23:02 23° SSW visible
08 Dec 2.4 22:07:22 10° SSW 22:09:27 18° SSE 22:11:25 11° ESE visible
08 Dec 3.3 23:41:45 10° WSW 23:42:38 18° WSW 23:42:38 18° WSW visible
09 Dec 1.4 22:27:01 10° SW 22:29:40 34° SSE 22:30:58 22° ESE visible
10 Dec 4.1 00:02:08 10° W 00:02:11 10° W 00:02:11 10° W visible
10 Dec 0.6 22:47:11 10° WSW 22:50:01 58° SSE 22:50:30 48° ESE visible
